User: anonymous   Login
Location: Unspecified
(0.0000°N, 0.0000°E)
Time: 21:27:30
(UTC+00:00)
Language:

1KUNS-PF - Orbit

View from above orbital plane
View from above orbital plane
View from above satellite
View from above satellite

Ground track
Ground track

The orbit data is extracted from the following two-line orbital elements,

1 43467U 98067NQ  19047.55057277  .00007508  00000-0  97517-4 0  9996
2 43467  51.6364 233.8443 0001964 328.3901  31.6974 15.59928532 43796
Epoch (UTC): 16 February 2019 13:12:49
Eccentricity: 0.0001964
inclination: 51.6364°
perigee height: 386 km
apogee height: 389 km
right ascension of ascending node: 233.8443°
argument of perigee: 328.3901°
revolutions per day: 15.59928532
mean anomaly at epoch: 31.6974°
orbit number at epoch: 4379

The dashed part of the orbit path shows where the satellite is in the earth's shadow,  

DLR